This is the latest recevied weather packets stored in our database for station/object KA3ZXO. If no packets are shown the sender has not sent any weather packets the latest 10 day(s).
| Time | Temp. | Humidity | Pressure | Rain* | Wind** | Luminosity | Snow |
|---|---|---|---|---|---|---|---|
| 1777944513 | 18.33° C | 54% | 1011.5 hPa | 0 mm | - | 0 W/m² | - |
| 1777943912 | 18.33° C | 53% | 1011.5 hPa | 0 mm | - | 0 W/m² | - |
| 1777943311 | 18.89° C | 52% | 1011.4 hPa | 0 mm | - | 0 W/m² | - |
| 1777942709 | 18.89° C | 50% | 1011.5 hPa | 0 mm | - | 0 W/m² | - |
| 1777942104 | 18.89° C | 49% | 1011.3 hPa | 0 mm | - | 0 W/m² | - |
| 1777941503 | 18.89° C | 49% | 1011.2 hPa | 0 mm | - | 0 W/m² | - |
| 1777940902 | 19.44° C | 48% | 1011.1 hPa | 0 mm | - | 0 W/m² | - |
| 1777940298 | 20.56° C | 45% | 1011.1 hPa | 0 mm | - | 0 W/m² | - |
| 1777939697 | 21.11° C | 43% | 1011.2 hPa | 0 mm | - | 0 W/m² | - |
| 1777939097 | 21.67° C | 41% | 1010.9 hPa | 0 mm | - | 1 W/m² | - |
| 1777938497 | 21.67° C | 40% | 1011 hPa | 0 mm | - | 3 W/m² | - |
| 1777937896 | 22.22° C | 39% | 1010.8 hPa | 0 mm | - | 6 W/m² | - |
| 1777937295 | 22.78° C | 38% | 1010.8 hPa | 0 mm | - | 9 W/m² | - |
| 1777936695 | 22.78° C | 37% | 1010.8 hPa | 0 mm | - | 13 W/m² | - |
| 1777936093 | 23.33° C | 36% | 1010.7 hPa | 0 mm | - | 16 W/m² | - |
| 1777935490 | 23.89° C | 36% | 1010.7 hPa | 0 mm | - | 23 W/m² | - |
| 1777934889 | 23.89° C | 34% | 1010.7 hPa | 0 mm | - | 23 W/m² | - |
| 1777934288 | 25° C | 34% | 1010.8 hPa | 0 mm | - | 55 W/m² | - |
| 1777933687 | 25.56° C | 33% | 1010.8 hPa | 0 mm | - | 86 W/m² | - |
| 1777933081 | 25.56° C | 32% | 1010.9 hPa | 0 mm | - | 109 W/m² | - |
| 1777932481 | 25° C | 33% | 1011.1 hPa | 0 mm | - | 134 W/m² | - |
| 1777931875 | 25° C | 32% | 1010.8 hPa | 0 mm | - | 164 W/m² | - |
| 1777931273 | 25.56° C | 32% | 1010.9 hPa | 0 mm | - | 198 W/m² | - |
| 1777930673 | 26.11° C | 32% | 1010.9 hPa | 0 mm | - | 142 W/m² | - |
| 1777930072 | 25° C | 33% | 1010.9 hPa | 0 mm | - | 220 W/m² | - |
* Rain latest hour (hover to see other rain measurements)
** Current wind speed in m/s (hover to see current wind gust speed)